CZ-6A DEB

Satellite information

Favourite Embed

Satellite Type and Status

DEBRISIN ORBIT

Key statistics

Satellite CZ-6A DEB at a glance.

Uptime

911

Days in orbit

Revolutions

≈ 14.2

Per day

Orbit

SSO

Sun Synchronous Orbit

Inclination

98.8

Latest

Satellite identification and parameters

Extended collection of information and parameters for CZ-6A DEB.

Object identification

Identified? True

Debris? True

Object name: CZ-6A DEB

International designator: 2022-151GS

Object number (NORAD): 54466

Object ID (CCSDS): 54466

Country: PEOPLES REPUBLIC OF CHINA (PRC)

Current information (Y/N): Y

RCS size: MEDIUM

Orbital parameters

Period: 101.69 minutes

Inclination: 98.8304 deg

SMA: 7216.816 km

Apoapsis: 860.363 km

Periapsis: 817.0 km

RAAN: 138.4882 deg

Eccentricy: 0.0030043

Argument of periapsis: 21.7151 deg

Mean anomaly: 338.529 deg

Mean motion: 14.16068657 rev/day

Mean motion (dot): 0.00001698 rev/day2

B* drag term: 0.00087819 1/REarth

Two-line elements (TLE)

Creation date: May 8, 2025, 11:06 p.m.

Reference frame: TEME

Reference center: EARTH

Epoch: May 8, 2025, 12:57 p.m. UTC

TLE line 0: 0 CZ-6A DEB

TLE line 1: 1 54466U 22151GS 25128.53965066 .00001698 00000-0 87819-3 0 9994

TLE line 2: 2 54466 98.8304 138.4882 0030043 21.7151 338.5290 14.16068657128094

Live tracking on map

Real-time ground track for satellite CZ-6A DEB.

In-orbit conjunctions

A list of the most updated potential collisions computed for object CZ-6A DEB.

Target Orbit TCA Probability of collision Miss distance Type
CZ-6A DEB SSO 2024-06-28 06:53:10 0.0001009905 359.0 (m) DEBRIS

Associated space launch

Chinese satellite reported for atmospheric/ocean/environmental/spatial parameter research purposes, details TBD.

CZ-6A DEB was lifted into orbit during the mission ‘Long March 6A | Yunhai 3’, on board a Long March 6A space rocket.

The launch took place on Nov. 11, 2022, 10:52 p.m. from Launch Complex 9A.

For more information about the launch, click the button.

Launch to space Long March 6A | Yunhai 3
Long March 6A | Yunhai 3

Agency: N/A

Status: Launch Successful

Launch date: Nov. 11, 2022, 10:52 p.m. UTC

Rocket: Long March 6A

Launch pad: Launch Complex 9A

Location: Taiyuan Satellite Launch Center, People's Republic of China

...

Latest news about this satellite

There are no fresh news available about this satellite. Check back as we update our databases every day.


Newsletter sign-up

Weekly statistics, charts and insights to help you stay on top of the space industry.